User: anonymous   Login
Location: Waning Moon II Observatory
(30.3730°N, 89.7620°W)
Time: 16:43:01
(UTC-06:00)
Language:

Cosmos 1825 Rocket - Orbit

View from above orbital plane
View from above orbital plane
View from above satellite
View from above satellite

Ground track
Ground track

The orbit data is extracted from the following two-line orbital elements,

1 17567U 87024B   15063.11030220  .00000579  00000-0  67663-4 0  9994
2 17567 082.5264 261.3954 0018319 220.6211 139.3638 14.83345114512501
Epoch (UTC): 04 March 2015 02:38:50
Eccentricity: 0.0018319
inclination: 82.5264°
perigee height: 606 km
apogee height: 631 km
right ascension of ascending node: 261.3954°
argument of perigee: 220.6211°
revolutions per day: 14.83345114
mean anomaly at epoch: 139.3638°
orbit number at epoch: 51250

The dashed part of the orbit path shows where the satellite is in the earth's shadow,  

DLR